Regional Weather Roundup
Issued by NWS

Home | Current Version | Previous Version | Graphics & Text | Print | Product List | Glossary On
Versions: 1 2 3 4 5 6 7 8 9 10 11 12 13 14 15 16 17 18 19 20 21 22 23 24 25 26 27 28 29 30 31 32 33 34 35 36 37 38 39 40 41 42 43 44 45 46 47 48 49 50
408
ASUS43 KDMX 250506
RWRIA

WEATHER ROUNDUP FOR IOWA
NATIONAL WEATHER SERVICE DES MOINES IA
1200 AM CDT SUN JUN 25 2017

NOTE: "FAIR" INDICATES FEW OR NO CLOUDS BELOW 12,000 FEET WITH NO
SIGNIFICANT WEATHER AND/OR OBSTRUCTIONS TO VISIBILITY.

* - THESE STATIONS ARE NOT NWS STATIONS...THUS NOT UNDER NWS
QUALITY CONTROL.  THEY ALSO DO NOT REPORT WEATHER SUCH
AS PRECIPITATION OR FOG.

IAZ001>003-012>014-020>022-031>034-043>046-250600-
   NORTHWEST IOWA

CITY           SKY/WX    TMP DP  RH WIND       PRES   REMARKS
CARROLL *      CLEAR     52  43  71 W7        30.18R
CHEROKEE *     CLEAR     55  42  60 NW5       30.20R
DENISON *      CLEAR     55  41  58 CALM      30.22R
LE MARS *      CLEAR     54  41  62 NW7       30.22R
ORANGE CITY *  CLEAR     55  43  62 N6        30.21R
SHELDON *      CLEAR     52  43  71 NW8       30.19R
SIOUX CITY     CLEAR     56  43  61 NW7       30.22R
SPENCER        CLEAR     49  43  80 NW7       30.18R
STORM LAKE *   CLEAR     57  41  54 NW8       30.19R
$$

IAZ055>058-069>071-079>083-090>094-250600-
   SOUTHWEST IOWA

CITY           SKY/WX    TMP DP  RH WIND       PRES   REMARKS
ATLANTIC *     CLEAR     54  48  82 N5        30.19R
AUDUBON *      CLEAR     54  45  71 CALM      30.20R
CLARINDA *       N/A     57  54  88 CALM      30.21R
COUNCIL BLFS * CLEAR     61  43  51 N7        30.20R
CRESTON *      CLEAR     61  45  55 NW6       30.20R
HARLAN  *      CLEAR     57  41  54 N6        30.23R
LAMONI         CLEAR     61  48  62 NW8       30.17R
RED OAK *      CLEAR     55  50  82 CALM      30.19R
SHENANDOAH *   CLEAR     55  52  88 CALM      30.20R
$$

IAZ047>049-059>061-072>074-084-250600-
   CENTRAL IOWA

CITY           SKY/WX    TMP DP  RH WIND       PRES   REMARKS
AMES           CLEAR     54  48  80 NW5       30.16R
ANKENY *       CLEAR     55  46  71 CALM      30.17R
BOONE *        CLEAR     59  43  55 NW6       30.16R
CHARITON *     PTCLDY    61  45  55 N5        30.17R
DES MOINES     CLEAR     63  44  50 N5        30.16R
GRINNELL*      CLEAR     57  45  62 CALM      30.16R
KNOXVILLE *    CLEAR     63  45  51 N5        30.15R
MARSHALLTOWN   CLEAR     52  46  80 W5        30.14R
NEWTON *       CLEAR     59  43  55 NW6       30.15S
PELLA *        CLEAR     57  46  66 CALM      30.16S
PERRY *          N/A     54  44  70 W6        30.17R
$$

IAZ004>006-015-016-023>025-035-036-250600-
   NORTH CENTRAL IOWA

CITY           SKY/WX    TMP DP  RH WIND       PRES   REMARKS
ALGONA *       PTCLDY    54  43  66 NW6       30.16S
CLARION *        N/A     52  46  82 NW7       30.15S
ESTHERVILLE    MOCLDY    50  45  83 W8        30.16R
FORT DODGE *   CLEAR     50  39  66 CALM      30.17S
MASON CITY     CLEAR     50  42  74 W8        30.15R
FOREST CITY *    N/A     54  36  50 NW7       30.14S
WEBSTER CITY * CLEAR     52  45  76 W8        30.14R
IOWA FALLS *     N/A     51  46  82 W5        30.16R
$$

IAZ007>011-017>019-026>030-037>042-050>054-066-250600-
   NORTHEAST IOWA

CITY           SKY/WX    TMP DP  RH WIND       PRES   REMARKS
CEDAR RAPIDS   CLEAR     55  47  74 NW6       30.12R
CHARLES CITY * CLEAR     52  48  87 W6        30.13R
CLINTON *      CLEAR     55  53  93 W3        30.11S
DECORAH *      CLEAR     54  46  76 W5        30.09S
DUBUQUE        CLEAR     50  49  96 SW3       30.10S
MONTICELLO *   CLEAR     54  52  94 CALM      30.11R
OELWEIN *      CLEAR     52  48  87 W7        30.12S
WATERLOO       CLEAR     54  44  69 W3        30.11S
$$

IAZ064-065-067-068-078-250600-
   EAST CENTRAL IOWA

CITY           SKY/WX    TMP DP  RH WIND       PRES   REMARKS
DAVENPORT      PTCLDY    57  51  80 N5        30.11S
IOWA CITY      CLEAR     59  46  62 NW3       30.13R
MT. PLEASANT * CLEAR     63  43  49 NW7       30.14R
MUSCATINE *    CLEAR     61  48  63 CALM      30.13R
QUAD CITIES    MOCLDY    64  48  56 CALM      30.11R
$$

IAZ062-063-075>077-085>089-095>099-250600-
   SOUTHEAST IOWA

CITY           SKY/WX    TMP DP  RH WIND       PRES   REMARKS
BURLINGTON     CLEAR     62  48  60 NW6       30.12R
FAIRFIELD *    CLEAR     59  45  58 N6        30.14R
FORT MADISON * CLEAR     63  48  59 NW7       30.14R
KEOKUK *       CLEAR     59  50  72 W6        30.12R
OSKALOOSA *      N/A     56  45  66 N5        30.15S
CENTERVILLE *    N/A     59  50  72 CALM      30.18R
OTTUMWA        CLEAR     58  44  60 N6        30.15R
WASHINGTON *   CLEAR     59  45  58 NW7       30.14S
$$

ABBREVIATIONS USED IN REMARKS
   TC - TEMPERATURES IN CELSIUS
  WCI - WIND CHILL INDEX
   HX - HEAT INDEX
  VSB - VISIBILITY
$$





USA.gov is the U.S. government's official web portal to all federal, state and local government web resources and services.